Regional Weather Roundup
Issued by NWS Albany, NY

Home | Current Version | Previous Version | Text Only | Print | Product List | Glossary On
Versions: 1 2 3 4 5 6 7 8 9 10 11 12 13 14 15 16 17 18 19 20 21 22 23 24 25 26 27 28 29 30 31 32 33 34 35 36 37 38 39 40 41 42 43 44 45 46
000
ASUS41 KALY 230410
RWRALY

NEW YORK STATE HOURLY WEATHER ROUNDUP
NATIONAL WEATHER SERVICE ALBANY NY
1100 PM EST MON DEC 22 2014

NOTE: "FAIR" INDICATES FEW OR NO CLOUDS BELOW 12,000 FEET WITH NO
SIGNIFICANT WEATHER AND/OR NO OBSTRUCTIONS TO VISIBILITY.

NYZ032-033-038>043-046>054-057>066-NYZ062>081-230500-
EAST


CITY           SKY/WX    TMP DP  RH WIND       PRES   REMARKS
ALBANY         CLOUDY    34  27  75 CALM      30.24S
GLENS FALLS    CLOUDY    34  29  82 NW3       30.24S
POUGHKEEPSIE   LGT RAIN  37  33  85 NW3       30.22F FOG
NEWBURGH       LGT RAIN  37  37 100 CALM      30.20F FOG
MONTGOMERY     LGT RAIN  37  36  96 NE8       30.18F FOG     WCI  31
WHITE PLAINS   LGT RAIN  43  41  93 E10       30.19F FOG
ISLIP          LGT RAIN  46  43  89 E10       30.19S
NEW YORK CITY  LGT RAIN  43  43 100 NE10      30.19F FOG
CENTRAL PARK   LGT RAIN  44  41  89 E6        30.21F
$$

NYZ005>009-017-018-044>046-055-056-230500-
CENTRAL


CITY           SKY/WX    TMP DP  RH WIND       PRES   REMARKS
FULTON         CLOUDY    36  30  79 VRB6      30.13R WCI  31
SYRACUSE       CLOUDY    35  31  85 E9        30.14S WCI  28
ROME           CLOUDY    35  31  85 SE7       30.18S WCI  29
ELMIRA         LGT RAIN  34  32  92 CALM      30.11S
BINGHAMTON     LGT RAIN  34  34 100 SE7       30.09F FOG     WCI  28
MONTICELLO     CLOUDY    34  34 100 E10       30.15F WCI  26
$$

NYZ026>034-041>043-230500-
NORTH


CITY           SKY/WX    TMP DP  RH WIND       PRES   REMARKS
WATERTOWN      CLOUDY    34  28  79 E5        30.14S WCI  30
FORT DRUM      NOT AVBL
MASSENA        CLOUDY    21  16  81 E12       30.23F WCI   9
SARANAC LAKE   MOCLDY    20  18  92 NE8       30.13F WCI  10
PLATTSBURGH    CLOUDY    22  18  85 N3        30.28F
$$

NYZ001>004-010>016-019>021-230500-
WEST


CITY           SKY/WX    TMP DP  RH WIND       PRES   REMARKS
NIAGARA FALLS  CLOUDY    33  26  75 SE5       30.03R WCI  29
BUFFALO        CLOUDY    35  27  72 SE7       30.03R WCI  29
DUNKIRK        CLOUDY    37  29  72 S18       29.99F WCI  27
JAMESTOWN      CLOUDY    32  27  80 SE6       29.98F WCI  26
WELLSVILLE     CLOUDY    31  29  92 S10       30.03S WCI  22
ROCHESTER      CLOUDY    37  26  64 S7        30.07F WCI  32
PENN YAN       LGT RAIN  35  30  82 S6        30.09S WCI  30
$$

             KEY
       WCI = WIND CHILL INDEX
       VSB = VISIBILITY
       HX  = HEAT INDEX
$$


USA.gov is the U.S. government's official web portal to all federal, state and local government web resources and services.